Temperature
17 17 17 17 17 17 17 17 17 17 17 17 17 17 17 17 17 17 17 17 17 17 17 17 16 17 16 16 16 16 16 16 16 16 16 16 16 16 16 16 15 15 15
17 17 17 17 17 17 17 17 17 17 17 17 17 17 17 17 16 16 17 17 17 17 17 17 17 17 17 16 16 16 16 16 16 16 16 16 16 16 16 16 15 15 15
17 17 17 17 17 17 17 17 17 17 17 17 17 17 17 17 17 16 16 16 17 17 17 17 17 17 17 16 16 16 16 16 16 16 16 16 16 16 16 16 15 15 15
17 17 17 17 17 17 17 17 17 17 17 17 17 17 17 17 16 16 17 16 16 16 17 17 17 17 17 16 16 16 16 16 16 16 16 16 16 16 16 16 16 15 15
17 17 17 17 17 17 17 17 17 17 17 17 17 17 17 17 17 17 17 17 16 16 16 17 17 17 17 17 16 16 16 16 16 16 16 16 16 16 16 16 16 15 15
17 17 17 17 17 17 17 17 17 17 17 17 18 18 17 17 17 17 17 17 17 16 16 16 16 17 17 17 17 16 16 16 16 16 16 16 16 16 16 16 15 15 15
17 17 17 17 17 17 17 17 17 17 17 17 17 18 18 18 17 17 17 17 17 17 17 16 16 16 16 17 17 16 16 16 16 16 16 16 16 16 16 16 15 15 15
17 17 17 17 17 17 17 17 17 17 17 17 17 18 18 18 17 18 17 17 17 17 17 17 17 17 16 16 16 17 16 16 16 16 16 16 16 16 15 15 15 15 15
17 17 17 17 17 17 17 17 17 17 17 17 17 18 18 19 18 18 18 18 17 17 17 17 17 17 16 16 16 16 16 16 16 16 16 16 16 15 15 15 15 15 15
17 17 17 17 17 17 17 17 17 17 17 17 17 17 17 18 18 18 18 18 17 17 17 17 17 17 17 16 16 16 16 16 16 16 16 16 15 15 15 15 15 15 15
17 17 17 17 17 17 17 17 17 17 17 17 17 17 17 17 17 17 18 17 17 17 17 17 17 17 17 16 16 16 16 16 16 16 16 16 15 15 15 15 15 15 15
17 17 17 17 17 17 17 17 17 17 17 17 17 17 17 17 17 17 17 17 17 17 17 17 17 16 16 16 16 16 16 16 16 16 16 15 15 15 15 15 15 14 14
17 17 17 17 17 17 17 17 17 17 17 17 17 17 17 17 17 17 17 17 17 17 16 16 16 16 16 16 16 16 16 15 15 15 15 15 15 15 14 14 14 14 14
17 17 17 17 17 17 17 17 17 17 17 17 17 17 17 17 17 17 17 17 17 17 16 16 16 16 16 15 15 15 15 15 15 15 14 14 14 14 14 14 14 14 13
17 17 17 17 17 17 17 17 17 17 17 17 16 16 16 16 16 16 16 16 16 16 16 16 15 15 15 15 15 14 14 14 14 14 14 14 14 13 13 13 13 13 13
17 17 17 17 17 17 17 17 17 17 16 16 16 16 16 16 16 16 16 16 16 16 16 15 15 15 14 14 14 14 14 14 13 13 13 13 13 13 13 13 13 13 12
17 17 17 17 17 17 17 17 16 16 16 16 16 16 16 16 16 16 16 16 15 15 15 15 14 14 14 14 14 13 13 13 13 13 13 12 12 12 12 12 12 12 12
17 17 17 17 17 16 16 16 16 16 16 16 16 16 15 15 16 15 15 15 15 15 15 14 14 14 13 13 13 13 12 12 12 12 12 12 12 12 12 11 11 11 11
17 16 16 16 16 16 16 16 16 16 16 16 15 15 15 15 15 15 15 15 14 14 14 14 14 13 13 12 12 12 12 12 11 11 11 11 11 11 11 11 10 10 10
16 16 16 16 16 16 15 15 15 15 15 15 15 15 15 15 15 15 14 14 14 14 14 13 13 13 12 12 12 12 11 11 11 11 10 10 10 10 10 10 10 10 10
16 16 16 16 15 15 15 15 15 15 15 15 15 14 14 14 14 14 14 14 14 13 13 13 13 13 12 12 12 11 11 11 10 10 10 10 9 9 9 9 9 9 9
16 16 15 15 15 15 15 15 15 15 14 14 14 14 14 14 14 14 14 14 14 13 13 13 13 12 12 12 11 11 11 11 10 10 10 9 9 9 9 9 9 8 8
15 15 15 15 15 15 15 15 15 14 14 14 14 13 13 13 13 13 13 13 13 13 13 12 12 12 11 11 11 11 10 10 10 10 9 9 9 9 8 8 8 8 8
15 15 15 14 14 15 15 15 15 14 14 14 14 13 13 13 12 12 12 12 12 12 12 12 11 11 11 11 11 11 10 10 9 9 9 9 9 9 8 8 8 8 7
15 14 14 14 14 14 14 14 14 14 14 13 13 13 12 12 12 12 12 11 11 12 11 11 11 11 11 11 10 10 10 10 10 9 9 9 9 8 8 8 8 7 7
14 14 14 14 14 14 14 14 13 13 13 13 13 12 12 12 12 12 11 11 11 11 11 11 11 10 10 10 10 10 10 10 10 9 9 9 9 8 8 8 8 7 7
Wind_Speed
4 4 4 3 3 4 5 3 3 4 3 3 3 4 3 3 3 3 7 9 7 7 7 8 8 8 8 8 8 8 8 8 8 7 7 7 7 7 7 7 7 6 6
4 4 4 3 3 3 3 3 3 3 2 2 2 3 2 3 3 3 5 9 9 7 7 7 8 8 9 9 9 9 9 9 8 9 9 8 8 8 8 8 8 7 7
4 4 3 4 3 3 3 3 3 3 3 3 3 3 3 3 3 3 4 5 8 10 9 8 8 9 9 9 10 10 10 10 10 10 10 10 9 9 9 9 9 9 9
5 4 3 3 3 3 3 3 3 3 2 2 2 2 2 3 4 4 4 5 5 6 10 11 10 10 10 10 11 11 11 11 12 12 12 12 11 11 11 10 10 10 11
6 5 4 3 4 3 3 4 3 3 3 3 3 3 3 3 4 5 4 5 5 5 6 11 12 12 12 12 12 12 12 12 13 13 13 13 13 12 12 12 12 12 12
7 6 5 4 4 3 4 3 3 3 3 3 3 2 3 3 4 4 5 5 6 7 7 6 9 11 14 13 13 13 13 13 14 15 15 14 13 13 14 13 13 13 13
6 6 4 4 4 4 4 5 4 5 4 3 3 3 4 5 4 4 5 5 5 6 6 7 7 7 9 15 15 14 13 13 13 14 14 14 14 14 14 14 14 14 14
7 7 5 5 5 4 5 5 5 5 4 4 4 3 3 4 4 5 5 5 5 5 6 7 7 7 7 7 10 14 14 13 13 13 14 14 14 14 14 13 13 13 13
8 7 6 6 5 6 6 6 6 7 5 5 5 4 3 2 2 3 4 4 4 4 5 4 6 6 7 7 6 10 12 12 12 12 13 13 14 14 14 14 14 14 13
7 7 7 7 6 6 5 7 6 6 6 5 5 5 5 3 3 2 3 4 4 4 4 3 3 4 5 5 4 3 7 9 9 10 10 11 11 12 13 14 14 13 12
6 7 7 6 7 7 6 6 5 7 6 6 5 5 5 5 7 5 4 3 3 2 2 2 3 2 3 3 3 2 5 6 7 7 8 8 8 7 7 8 9 10 10
5 6 6 6 7 6 6 6 6 8 7 7 6 5 5 5 5 5 5 5 4 3 2 1 2 2 2 1 1 4 4 3 4 4 4 4 4 4 4 4 4 5 6
4 4 5 5 5 5 6 5 6 6 6 6 6 5 5 6 5 4 5 5 4 3 2 2 2 2 1 1 3 6 5 5 4 4 3 3 3 2 2 2 2 3 3
3 3 5 5 5 5 5 4 4 5 4 5 6 5 5 5 4 5 5 5 5 4 3 3 1 1 1 2 5 6 5 6 6 5 4 3 3 3 2 2 2 2 3
3 4 4 4 4 4 3 3 3 3 4 4 4 4 5 4 4 5 5 5 5 5 4 2 1 1 2 3 5 5 5 8 8 7 6 6 5 5 5 4 3 3 2
2 3 3 3 3 3 3 3 3 3 3 3 3 3 4 4 3 4 4 4 5 5 4 1 0 1 3 4 6 6 7 10 10 9 9 8 8 7 7 6 6 6 4
2 2 2 2 2 2 2 2 2 2 3 2 3 3 3 3 3 3 3 4 3 3 4 2 0 1 3 2 5 6 6 6 8 9 9 9 9 9 9 9 8 8 8
1 1 1 1 1 1 1 1 1 1 1 1 2 2 3 2 3 3 3 3 2 2 3 2 1 1 2 3 4 4 4 5 7 10 10 10 9 9 10 10 10 9 9
0 1 1 1 1 1 1 1 1 1 1 0 1 1 2 2 2 2 2 2 2 2 2 3 3 2 2 3 4 4 5 4 6 8 9 9 9 10 10 10 9 9 9
1 1 1 1 1 1 1 1 1 1 1 0 0 1 1 1 1 1 1 1 1 1 2 3 3 3 3 3 4 4 4 4 3 4 6 7 9 10 10 9 9 8 8
1 1 1 1 1 1 0 0 1 1 1 1 1 1 2 3 5 3 1 1 1 2 3 3 3 3 3 4 4 3 4 4 3 2 3 4 6 6 6 7 7 7 7
2 2 2 1 1 1 4 3 1 1 1 1 1 1 2 3 4 5 5 5 4 1 2 2 3 3 3 4 3 4 3 3 2 2 2 2 3 3 3 5 6 6 6
3 3 2 2 2 3 4 3 2 1 2 2 2 1 1 3 2 3 4 4 4 4 2 1 1 2 3 3 3 4 4 3 1 3 2 2 1 2 3 5 7 6 6
3 3 3 3 3 4 4 3 1 2 3 3 3 2 2 2 2 1 2 3 3 3 2 1 1 1 1 2 3 4 4 4 3 2 1 1 1 1 2 4 7 6 6
3 2 3 3 3 4 4 2 2 3 3 3 3 3 2 2 3 2 2 3 3 3 6 7 6 6 6 4 1 3 4 4 2 2 1 1 1 1 2 3 6 9 8
3 3 3 3 3 3 3 2 4 2 3 3 3 4 6 4 3 2 2 2 3 3 4 5 5 5 5 4 3 1 2 2 1 2 2 2 1 2 2 3 3 6 7
Wind_Direction
154 145 138 147 152 139 148 144 135 132 138 140 140 131 125 110 124 140 132 148 165 174 176 176 177 177 179 180 182 183 185 185 185 185 183 184 185 186 186 190 190 191 191
161 167 162 165 162 165 139 156 151 162 158 136 146 138 157 158 151 171 155 156 171 181 184 185 186 188 191 192 192 193 196 197 196 198 201 201 202 202 204 205 204 206 207
175 190 173 180 172 170 163 187 171 182 186 174 165 165 173 187 169 183 187 175 172 180 190 196 199 199 200 201 203 204 206 208 208 210 212 212 212 212 215 215 213 215 216
197 207 196 184 177 192 190 191 206 202 190 194 188 198 186 187 195 202 203 198 197 186 186 195 205 210 212 213 214 213 214 217 218 219 220 219 218 219 223 223 222 222 222
205 211 207 188 204 203 211 220 192 212 199 202 201 196 208 210 202 206 209 211 206 211 203 181 199 213 218 221 223 221 221 222 221 221 223 224 223 225 228 228 227 228 229
209 215 207 200 220 214 220 226 224 221 226 223 231 208 221 218 218 213 218 211 208 214 219 209 202 206 213 222 228 228 227 226 224 224 225 226 227 229 230 230 231 232 233
214 220 226 196 227 223 227 225 221 212 221 218 228 225 222 219 221 221 225 229 215 215 221 223 229 223 206 211 221 227 229 230 227 224 222 224 227 229 230 231 232 234 235
216 213 220 222 219 229 227 229 227 237 230 215 235 244 235 209 211 219 215 217 227 219 222 224 227 230 240 222 204 210 221 227 230 227 225 226 227 228 228 229 229 230 232
219 227 219 230 227 234 230 230 228 230 236 229 233 248 258 244 208 200 208 216 219 231 238 239 235 229 231 236 223 203 211 221 229 234 230 226 225 225 227 229 229 230 232
225 221 226 229 236 241 238 239 231 235 238 242 231 239 258 285 264 247 219 200 202 220 238 249 243 229 231 236 229 215 200 217 228 234 233 232 231 230 231 231 231 230 228
221 224 229 232 231 238 240 245 240 239 238 244 242 239 240 239 243 253 259 250 232 225 221 236 252 257 252 242 238 207 175 205 221 225 233 235 232 229 228 227 227 227 226
223 224 230 232 233 236 240 241 239 234 242 250 250 245 243 243 241 243 257 256 246 239 223 257 254 258 266 247 176 111 131 163 185 192 200 209 211 205 198 205 222 228 228
230 228 237 233 233 231 236 241 238 244 242 245 246 244 246 251 257 250 254 262 261 248 219 234 233 226 237 150 108 111 119 131 132 135 147 164 175 172 179 184 205 219 232
244 241 234 231 231 232 237 236 244 244 245 242 247 252 255 257 258 249 250 255 259 255 234 230 219 177 139 106 103 112 108 116 118 118 121 126 127 123 120 131 163 204 226
242 237 239 234 228 232 242 242 242 246 244 242 244 243 250 255 257 260 254 247 253 262 259 226 202 154 135 118 108 105 97 98 107 105 102 101 101 101 102 105 113 123 145
253 246 243 234 228 224 227 233 232 230 231 240 248 255 255 259 261 261 264 258 254 258 261 260 168 165 134 125 113 113 105 97 92 95 95 94 94 93 93 91 94 99 108
247 243 244 233 220 219 224 229 237 233 233 238 245 241 247 265 265 259 259 261 257 247 242 255 31 117 128 126 117 116 114 107 99 98 98 96 94 93 92 90 86 84 86
236 222 219 201 207 199 201 210 237 236 240 245 255 257 262 260 257 269 262 254 250 238 223 211 209 175 140 134 126 122 112 104 97 99 98 95 95 95 95 92 90 89 89
150 177 185 182 180 193 184 183 199 213 226 254 265 264 271 272 270 276 271 257 238 213 192 186 185 155 134 130 126 119 108 106 103 108 107 103 100 98 95 94 94 93 93
105 114 156 151 172 184 168 161 171 182 190 206 313 295 300 294 281 263 242 244 229 184 163 167 162 156 144 146 153 145 136 128 118 115 108 111 115 110 102 99 96 95 96
133 132 123 142 163 165 121 154 164 168 176 152 110 78 63 62 45 26 11 22 208 192 163 161 161 158 159 164 177 168 148 133 120 129 127 129 128 119 119 115 105 101 103
127 119 107 103 101 76 57 27 345 149 155 154 138 119 118 104 101 87 62 53 43 119 166 172 176 172 174 182 175 166 161 161 152 150 146 125 129 123 124 117 119 121 119
119 108 99 91 90 79 70 53 9 119 113 93 96 97 91 88 110 115 124 131 86 52 29 257 163 189 183 184 180 173 168 170 138 140 169 146 141 141 141 124 137 146 145
118 106 95 88 85 82 73 58 359 128 108 99 91 91 92 85 63 68 115 109 98 78 61 97 97 101 123 150 179 177 169 162 138 135 176 205 169 173 155 145 156 169 175
126 117 105 99 96 89 68 30 317 126 116 103 88 70 72 88 36 328 139 126 113 106 85 79 74 82 84 93 116 174 172 177 169 149 155 243 193 189 191 186 171 179 186
139 131 107 98 99 98 79 21 316 130 115 108 98 90 64 52 35 354 145 133 124 107 110 111 103 111 111 112 116 150 189 193 190 174 150 236 212 214 210 199 188 184 191
Height
1575 1576 1576 1577 1579 1579 1580 1580 1581 1581 1582 1582 1583 1584 1584 1584 1585 1586 1585 1584 1585 1585 1586 1586 1587 1588 1589 1590 1590 1591 1592 1593 1593 1594 1594 1595 1595 1596 1596 1597 1597 1598 1598
1575 1576 1576 1577 1579 1580 1581 1581 1581 1581 1582 1583 1583 1583 1584 1584 1584 1585 1586 1585 1585 1585 1586 1586 1587 1588 1588 1589 1590 1591 1591 1592 1592 1593 1593 1594 1594 1595 1596 1596 1597 1597 1597
1574 1575 1577 1577 1578 1579 1579 1580 1581 1582 1582 1582 1583 1583 1584 1584 1584 1584 1585 1586 1585 1585 1585 1586 1586 1587 1588 1588 1589 1590 1590 1591 1591 1592 1592 1593 1593 1594 1594 1595 1595 1596 1596
1574 1574 1576 1577 1578 1579 1580 1580 1581 1582 1582 1582 1582 1583 1583 1583 1583 1584 1585 1585 1586 1586 1585 1585 1585 1586 1587 1587 1588 1588 1589 1589 1590 1590 1591 1591 1592 1592 1593 1593 1594 1594 1594
1573 1574 1575 1576 1577 1578 1579 1579 1580 1580 1581 1581 1582 1582 1582 1583 1583 1583 1584 1584 1584 1584 1585 1584 1584 1585 1585 1586 1586 1587 1587 1588 1588 1588 1589 1589 1590 1590 1591 1591 1592 1592 1592
1572 1574 1574 1575 1576 1577 1577 1578 1578 1579 1580 1580 1581 1581 1581 1581 1582 1582 1583 1583 1583 1583 1584 1584 1584 1583 1583 1584 1584 1585 1585 1585 1586 1586 1587 1587 1588 1588 1588 1589 1589 1589 1590
1571 1572 1574 1574 1574 1575 1576 1577 1577 1578 1579 1579 1580 1580 1580 1580 1580 1580 1581 1581 1582 1582 1582 1582 1582 1583 1582 1582 1582 1583 1583 1583 1583 1584 1584 1584 1585 1585 1586 1586 1586 1586 1587
1569 1571 1571 1572 1573 1573 1574 1574 1575 1576 1577 1578 1578 1578 1578 1579 1578 1578 1578 1579 1579 1580 1580 1580 1580 1579 1580 1581 1580 1580 1580 1581 1581 1581 1581 1581 1582 1582 1582 1583 1583 1583 1583
1567 1568 1569 1570 1571 1572 1572 1572 1573 1574 1575 1576 1576 1577 1576 1575 1576 1576 1576 1576 1576 1577 1577 1578 1577 1577 1577 1577 1578 1577 1577 1578 1578 1578 1578 1578 1579 1579 1579 1579 1579 1579 1579
1565 1566 1567 1568 1568 1569 1570 1570 1571 1571 1572 1573 1573 1573 1574 1574 1575 1574 1574 1574 1574 1574 1574 1575 1575 1574 1574 1574 1574 1574 1574 1574 1574 1574 1575 1575 1575 1575 1575 1575 1575 1575 1575
1562 1563 1564 1565 1565 1566 1567 1567 1568 1568 1569 1570 1571 1571 1571 1571 1572 1572 1572 1572 1572 1572 1571 1571 1572 1572 1571 1571 1571 1571 1570 1571 1571 1571 1571 1571 1571 1571 1571 1571 1571 1571 1571
1560 1561 1561 1562 1563 1564 1564 1564 1565 1565 1566 1567 1567 1568 1568 1569 1569 1569 1569 1569 1569 1569 1568 1568 1568 1568 1568 1568 1568 1567 1567 1567 1567 1567 1567 1567 1567 1567 1567 1567 1567 1567 1567
1558 1558 1559 1559 1560 1560 1561 1561 1561 1562 1563 1563 1564 1565 1565 1565 1566 1566 1566 1566 1566 1566 1565 1565 1565 1565 1565 1565 1564 1564 1564 1564 1564 1564 1564 1563 1563 1563 1563 1563 1563 1562 1562
1556 1556 1556 1556 1557 1558 1558 1559 1559 1559 1560 1560 1561 1561 1561 1562 1562 1563 1563 1563 1562 1562 1562 1562 1562 1562 1562 1562 1561 1561 1561 1560 1560 1560 1560 1560 1560 1559 1559 1559 1558 1558 1558
1553 1553 1553 1554 1555 1555 1555 1556 1556 1556 1557 1557 1557 1558 1558 1558 1559 1559 1559 1559 1560 1559 1559 1559 1559 1559 1559 1558 1558 1558 1558 1558 1557 1557 1557 1556 1556 1556 1555 1555 1555 1554 1554
1551 1551 1551 1552 1552 1553 1553 1553 1553 1554 1554 1554 1554 1554 1555 1555 1555 1555 1556 1556 1556 1556 1556 1556 1556 1556 1556 1555 1555 1555 1555 1555 1555 1554 1554 1554 1553 1553 1553 1552 1551 1551 1550
1549 1549 1549 1550 1550 1550 1551 1551 1551 1551 1551 1551 1551 1552 1551 1551 1552 1552 1552 1552 1552 1552 1552 1553 1553 1553 1553 1553 1553 1553 1553 1553 1553 1552 1552 1552 1551 1551 1550 1550 1549 1548 1548
1547 1547 1548 1548 1548 1548 1548 1549 1549 1549 1549 1549 1549 1549 1549 1549 1549 1549 1549 1549 1549 1549 1549 1549 1550 1550 1550 1550 1550 1551 1551 1551 1551 1550 1550 1550 1550 1549 1549 1548 1547 1547 1546
1546 1546 1546 1547 1547 1547 1547 1547 1547 1547 1547 1547 1547 1546 1546 1546 1546 1546 1545 1546 1546 1546 1546 1547 1547 1548 1548 1548 1548 1549 1549 1549 1550 1549 1549 1549 1548 1548 1547 1547 1546 1545 1545
1545 1545 1545 1545 1545 1545 1545 1545 1545 1545 1545 1545 1544 1544 1544 1543 1543 1543 1543 1543 1543 1544 1544 1545 1545 1546 1546 1546 1547 1548 1548 1548 1549 1549 1548 1548 1547 1547 1546 1546 1545 1544 1544
1544 1544 1544 1544 1544 1544 1544 1544 1544 1544 1543 1543 1542 1542 1541 1541 1541 1541 1541 1541 1541 1542 1542 1543 1543 1544 1544 1545 1546 1546 1547 1547 1547 1548 1548 1548 1547 1546 1545 1544 1544 1543 1543
1543 1543 1543 1543 1543 1543 1542 1542 1542 1542 1542 1541 1541 1540 1539 1539 1539 1539 1539 1539 1540 1540 1540 1541 1542 1542 1542 1543 1544 1544 1545 1546 1546 1547 1547 1547 1547 1546 1546 1544 1543 1542 1542
1542 1542 1542 1542 1541 1541 1541 1541 1541 1541 1540 1539 1539 1539 1539 1538 1538 1537 1537 1538 1538 1538 1539 1540 1540 1540 1541 1541 1542 1542 1543 1544 1544 1545 1546 1546 1546 1545 1545 1544 1543 1542 1541
1542 1541 1541 1541 1540 1540 1540 1540 1540 1540 1539 1538 1538 1538 1537 1537 1536 1537 1537 1537 1537 1537 1538 1538 1538 1539 1539 1539 1540 1541 1541 1542 1542 1543 1544 1545 1544 1544 1544 1543 1542 1541 1540
1541 1541 1540 1540 1539 1539 1539 1539 1539 1539 1538 1537 1537 1537 1536 1536 1536 1536 1536 1536 1537 1537 1537 1537 1537 1537 1537 1538 1538 1540 1540 1540 1541 1541 1542 1542 1542 1542 1542 1542 1541 1540 1539
1540 1540 1539 1539 1539 1539 1539 1538 1538 1538 1537 1537 1536 1536 1535 1535 1535 1536 1536 1536 1537 1537 1537 1537 1537 1536 1536 1536 1537 1537 1538 1538 1539 1539 1539 1540 1540 1540 1540 1540 1540 1539 1538